Weather in Svoboda

Russia / Kaliningrad Oblast     54°32′37″N   21°43′49″E
temp.,
°C
wind,
m/s
gust,
m/s
humid.,
%
clouds,
%
prec.,
mm/h
press.,
hPa
HPBL,
m
7 may, fri
fri723:00+3sw379018 0.0 1005120
02:00+2sw389461 0.0 1005153
05:00+2ssw3593100 0.0 1005102
08:00+6sw2373100 0.0 1005319
11:00+10ssw2262100 0.1 10041145
14:00+10wnw2261100 0.7 10041149
17:00+10nnw5563100 0.4 10041244
20:00+6nw4882100 0.4 1006462
8 may, sat
sat823:00+3wnw499396 0.0 1008318
02:00+1w389838 0.0 1009231
05:000wsw359931 0.0 1011109
08:00+5w467750 0.0 1013587
11:00+9w696189 0.2 10131742
14:00+10wnw7965100 1.3 10141763
17:00+8wnw588391 1.5 10161055
20:00+5wnw35935 2.3 1017115
9 may, sun
sun923:00+2sw34950 0.0 101962
02:00+1ssw349282 0.0 102068
05:00+1s3793100 0.0 1020129
08:00+7s598339 0.0 1020378
11:00+12s796168 0.0 10191076
14:00+14s61064100 0.0 10181219
17:00+15s6116997 0.0 10171182
20:00+12s5137833 0.0 1017413
10 may, mon
mon1023:00+11s6157372 0.0 1018408
02:00+10sse5147771 0.0 1018319
05:00+9sse6148298 0.0 1018318
08:00+13sse71674100 0.0 1018518
11:00+17sse7146245 0.0 1018837
14:00+20sse813624 0.0 10171101
17:00+19sse814675 0.0 10151151
20:00+16sse715735 0.0 1016674
11 may, tue
tue1123:00+15sse7177511 0.0 1016512
02:00+13sse6158297 0.0 1017427
05:00+12sse6148585 0.0 1016368
08:00+14sse716770 0.0 1016545
11:00+19sse714650 0.0 1016819
14:00+21sse814650 0.0 10151053
17:00+20sse814690 0.0 1014992
20:00+17sse716700 0.0 1014735